Weather Roundup
Issued by NWS Corpus Christi, TX

Current Version | Previous Version | Text Only | Print | Product List | Glossary On
Versions: 1 2 3 4 5 6 7 8 9 10 11 12 13 14 15 16 17 18 19 20 21 22 23 24 25 26 27 28 29 30 31 32 33 34 35 36 37 38 39 40 41 42 43 44 45 46 47 48 49 50
000
ASUS44 KCRP 060310
HRRCRP

SOUTH TEXAS REGIONAL WEATHER ROUNDUP
NATIONAL WEATHER SERVICE CORPUS CHRISTI TX
1000 PM CDT SUN JUL 05 2015


TXZ229>244-060400-
...CORPUS CHRISTI AREA OBSERVATIONS...

CITY           SKY/WX    TMP DP  RH WIND       PRES   REMARKS
CORPUS CHRISTI MOCLDY    82  77  84 SE16      29.99R HX  90
NAS CORPUS CHR MOCLDY   N/A N/A N/A SE16      29.99R
ROCKPORT       LGT RAIN  83  77  82 S12G20    30.01R HX  92
KINGSVILLE NAS CLOUDY    82  80  94 SE12      29.98R HX  94
ALICE          CLOUDY    81  77  88 SE13      29.98R
FALFURRIAS     CLEAR     82  75  78 SE8       29.96S
$$

...VICTORIA AREA OBSERVATIONS...

CITY           SKY/WX    TMP DP  RH WIND       PRES   REMARKS
VICTORIA       PTCLDY    80  77  90 SE8       30.02R
BEEVILLE       MOCLDY    80  80 100 SE12G18   29.99S
PLEASANTON     MOCLDY    82  74  76 SE9G21    29.98R
SAN ANTONIO    MOCLDY    83  74  74 SE17      30.00R
$$

...LAREDO AREA OBSERVATIONS...

CITY           SKY/WX    TMP DP  RH WIND       PRES   REMARKS
LAREDO         CLEAR     88  72  58 SE15      29.93R HX  94
COTULLA        LGT RAIN  87  72  60 SE16      29.94R HX  93
DEL RIO        PTCLDY    86  69  56 E8        29.89S HX  90
MCALLEN        CLEAR     84  76  76 SE14G23   29.97R HX  93
HEBBRONVILLE     N/A     82  71  70 SE10      29.98R
$$

...OTHER TEXAS OBSERVATIONS...

CITY           SKY/WX    TMP DP  RH WIND       PRES   REMARKS
BROWNSVILLE    CLEAR     82  78  88 SE14      29.99R HX  91
HOUSTON        PTCLDY    83  75  77 S10       30.05R HX  90
COL. STATION   CLEAR     82  72  71 SE9       30.03R
AUSTIN         CLEAR     81  74  79 S10       30.00R
WACO           CLEAR     84  70  62 S15       29.98R
FORT WORTH     PTCLDY    87  70  56 SE15      29.96R HX  92
WICHITA FALLS  PTCLDY    84  68  58 S14       29.91R
LUBBOCK        MOCLDY    83  65  54 SE16      29.95S
EL PASO        MOCLDY    88  57  34 W17       29.99R
$$

...MARINE OBSERVATIONS...

STATION/POSITION TIME  SKY/WX   TEMP    WIND        PRES    VSBY  WAVE   SWELL
                                AIR SEA DIR/SP/G                  HT/PER HT/PER
                 (UTC)          (F)     (DEG/KT/KT) (MB)    (MI)  (FT/S) (FT/S)
PORT ARANSAS     0200            82 83  140/ 13/ 15 1016.1R
BUOY 90 E PORT A NOT AVBL
BUOY 45 SE BAFFI 0250            83 83  160/ 17/ 21 1015.5R         4/ 7   2/ 9
BUOY 200 E PT IS 0250            84 84  130/ 14/ 16 1017.9R         3/ 5   2/ 9
BUOY 15 E GALVES 0250            85 85  150/ 14/ 16 1017.4R         3/ 6   2/ 6
$$



USA.gov is the U.S. government's official web portal to all federal, state and local government web resources and services.